SCP
0 0 0 0 0 0 0 0 1 1 2 3 4 4 4 4 5 5 4 4 5 6 5 5 5 4 5 6 6 6 6 5 4 4 4 3 3 2 2 2 3 3 3 3
0 0 0 0 0 0 0 1 1 1 3 4 5 5 4 4 4 4 4 5 6 6 6 6 5 4 5 6 7 7 6 5 4 4 4 4 3 3 3 3 3 3 3 3
0 0 0 0 0 1 1 2 3 4 5 6 7 6 5 4 5 5 5 6 7 7 8 7 5 5 5 6 6 6 6 5 5 5 5 5 4 4 3 3 3 3 2 2
0 0 0 1 1 1 2 4 6 7 8 8 8 8 8 9 9 9 9 8 7 7 7 7 6 5 5 5 5 6 6 5 6 7 7 6 5 5 4 4 4 3 2 2
1 1 1 1 2 2 3 4 6 7 9 8 8 9 11 13 13 12 11 9 8 7 7 7 6 6 5 5 5 6 7 8 9 9 9 8 6 6 5 5 4 3 3 3
1 1 1 2 3 3 3 4 6 7 9 8 8 9 11 12 12 11 9 7 7 6 6 5 5 5 5 5 6 9 11 11 11 11 10 9 8 8 7 5 4 3 3 3
1 1 1 3 4 5 5 6 8 9 9 8 8 8 9 9 8 7 6 5 6 6 6 5 4 4 5 6 8 11 13 13 13 11 10 10 9 8 6 5 3 3 2 2
2 2 3 3 5 7 8 10 10 9 8 8 9 10 9 7 6 5 5 5 5 5 6 5 4 4 5 6 8 11 12 12 11 10 9 8 7 6 5 3 3 3 2 2
3 4 4 4 5 7 9 10 9 8 7 8 10 11 10 8 7 6 5 4 4 5 5 5 4 5 5 6 7 8 8 8 8 8 7 6 4 3 3 2 2 2 2 2
5 5 5 4 4 5 6 7 6 6 6 8 10 10 9 8 7 6 5 4 5 5 5 5 5 5 5 5 6 6 6 5 5 5 4 3 2 2 2 2 2 2 1 1
5 5 4 4 4 4 4 5 5 5 6 7 8 7 6 6 5 4 3 4 4 5 5 4 4 4 4 4 4 4 4 3 3 2 1 1 0 0 1 1 1 1 1 1
4 4 4 4 5 6 6 5 5 5 5 5 5 5 4 3 3 2 2 3 4 4 5 5 4 4 3 3 2 2 2 2 1 1 1 0 0 0 0 0 0 0 0 0
3 4 4 6 7 7 7 6 4 4 4 4 3 3 3 3 2 2 2 2 3 4 5 5 4 3 3 2 2 1 1 1 1 1 0 0 0 0 0 0 0 0 0 0
3 3 5 7 8 7 6 5 3 2 2 3 2 2 2 2 2 2 2 2 3 5 6 6 4 3 2 2 1 1 1 0 1 1 1 0 0 0 0 0 0 0 0 0
3 3 4 6 6 4 3 3 2 2 2 2 2 2 2 2 3 3 3 3 3 5 5 4 3 2 1 1 1 0 0 0 0 0 0 0 0 0 0 0 0 0 0 0
3 3 4 4 3 2 2 2 1 1 2 2 2 2 2 3 3 3 3 3 3 3 3 2 2 1 1 1 0 0 0 0 0 0 0 0 0 0 0 0 0 0 0 0
2 3 4 4 3 2 2 1 1 1 1 2 2 3 3 2 2 2 1 1 1 1 1 1 1 0 0 0 0 0 0 0 0 0 0 0 0 0 0 0 0 0 0 0
2 2 3 3 3 3 2 2 2 1 1 1 2 2 2 1 1 0 0 0 0 0 0 0 0 0 0 0 0 0 0 0 0 0 0 0 0 0 0 0 0 0 0 0
1 1 2 2 3 2 2 2 2 2 1 1 1 1 1 0 0 0 0 0 0 0 0 0 0 0 0 0 0 0 0 0 0 0 0 0 0 0 0 0 0 0 0 0
1 1 1 1 2 2 2 2 2 1 1 1 0 0 0 0 0 0 0 0 0 0 0 0 0 0 0 0 0 0 0 0 0 0 0 0 0 0 0 0 0 0 0 0
1 1 1 1 1 1 1 1 1 1 1 0 0 0 0 0 0 0 0 0 0 0 0 0 0 0 0 0 0 0 0 0 0 0 0 0 0 0 0 0 0 0 0 0
1 1 1 1 1 1 1 1 1 1 0 0 0 0 0 0 0 0 0 0 0 0 0 0 0 0 0 0 0 0 0 0 0 0 0 0 0 0 0 0 0 0 0 0
1 1 1 1 1 1 1 0 0 0 0 0 0 0 0 0 0 0 0 0 0 0 0 0 0 0 0 0 0 0 0 0 0 0 0 0 0 0 0 0 0 0 0 0
1 1 1 1 1 0 0 0 0 0 0 0 0 0 0 0 0 0 0 0 0 0 0 0 0 0 0 0 0 0 0 0 0 0 0 0 0 0 0 0 0 0 0 0
1 1 1 0 0 0 0 0 0 0 0 0 0 0 0 0 0 0 0 0 0 0 0 0 0 0 0 0 0 0 0 0 0 0 0 0 0 0 0 0 0 0 0 0
1 1 1 0 0 0 0 0 0 0 0 0 0 0 0 0 0 0 0 0 0 0 0 0 0 0 0 0 0 0 0 0 0 0 0 0 0 0 0 0 0 0 0 0
0 0 0 0 0 0 0 0 0 0 0 0 0 0 0 0 0 0 0 0 0 0 0 0 0 0 0 0 0 0 0 0 0 0 0 0 0 0 0 0 0 0 0 0
Wind_Speed
12 9 11 13 14 14 14 12 9 5 8 7 6 6 7 8 9 9 8 7 6 5 4 4 4 4 4 3 4 4 4 4 3 3 3 3 2 2 2 2 2 2 3 3
13 14 13 14 15 14 14 12 9 7 5 7 8 7 7 7 7 8 7 6 5 5 4 3 3 3 3 3 4 5 5 4 4 3 3 3 3 3 3 2 3 3 3 3
12 12 12 13 13 14 13 10 9 6 6 7 8 8 7 7 8 7 6 6 5 5 4 3 3 3 3 3 4 4 5 4 4 4 4 3 3 4 4 3 4 4 3 4
10 8 14 9 9 11 10 7 6 7 10 8 8 7 9 7 8 8 7 6 5 5 4 3 3 3 3 3 4 5 5 4 4 4 4 4 4 4 4 4 5 4 4 4
9 11 11 7 7 7 7 5 5 9 10 10 11 11 10 8 9 8 7 7 5 5 5 4 4 3 3 4 4 5 5 4 4 5 5 5 5 5 5 5 5 5 5 6
9 10 9 5 3 4 5 6 5 8 9 12 11 7 6 8 10 9 8 7 6 6 7 6 5 5 5 4 5 5 5 5 5 5 5 5 6 6 6 5 6 6 7 7
11 9 3 2 3 3 5 5 8 9 9 10 7 8 9 10 10 9 9 8 8 8 7 7 6 6 5 6 6 6 6 6 6 6 6 6 6 6 6 6 7 7 7 7
10 9 3 4 3 1 4 7 9 11 11 12 14 15 13 11 10 9 8 8 8 8 7 7 7 6 7 7 6 7 7 8 8 7 7 7 7 6 6 6 7 6 6 7
1 3 6 7 8 5 5 9 9 12 13 14 15 14 13 11 10 9 8 8 7 8 8 8 7 7 8 7 7 8 8 9 9 9 8 7 7 6 5 4 5 5 6 6
5 8 8 7 8 7 7 9 10 11 13 14 15 14 12 11 10 9 8 8 8 8 8 8 8 8 7 7 7 8 10 9 9 10 11 11 9 8 7 6 5 5 6 6
6 6 6 7 7 7 9 10 11 12 13 14 14 13 12 11 10 9 8 8 8 8 8 8 8 8 7 7 8 9 10 10 10 10 11 11 11 10 9 9 6 6 6 6
3 5 4 6 6 7 10 11 12 13 13 13 13 13 12 11 9 9 9 9 9 9 9 9 9 9 8 6 7 8 8 8 8 8 8 9 10 11 17 13 16 16 13 10
6 6 8 7 7 9 11 12 12 12 13 12 12 12 12 11 9 10 10 10 9 9 9 9 9 9 8 7 7 8 8 7 7 7 7 8 8 9 9 10 14 15 14 12
7 9 9 7 8 10 12 13 13 12 12 12 12 12 11 11 10 10 10 10 10 10 10 10 10 9 7 7 7 8 8 9 7 6 6 6 7 7 7 8 7 7 7 7
6 8 9 10 10 11 11 12 13 12 12 11 11 11 11 11 11 11 10 10 11 11 11 10 10 9 8 8 8 8 8 6 6 6 6 6 6 6 7 8 7 7 5 3
7 8 9 11 11 11 11 12 12 11 11 11 11 11 12 12 11 11 11 10 11 11 9 9 8 7 6 7 8 7 7 8 6 5 5 5 5 5 6 5 5 5 5 4
7 8 8 10 11 10 10 10 11 11 11 11 11 11 12 12 12 11 11 11 10 9 8 7 7 6 6 6 6 5 6 7 7 5 5 5 5 5 5 5 5 6 6 5
7 7 7 9 9 11 11 11 11 12 11 12 11 11 11 12 11 10 10 10 10 10 8 7 6 6 6 6 4 4 4 5 5 5 5 5 4 4 4 5 6 6 5 5
7 8 9 9 10 11 11 11 12 12 11 11 11 11 11 11 10 10 9 10 10 10 8 7 7 7 7 7 5 3 5 6 6 6 5 4 4 5 6 6 6 6 6 5
8 10 11 11 12 12 12 12 12 12 11 11 12 12 11 10 10 10 10 9 7 7 6 5 6 6 6 6 5 4 6 6 6 5 5 5 6 6 6 6 6 6 6 5
10 11 12 12 12 12 11 12 12 13 12 12 12 11 11 10 9 8 9 9 7 6 5 5 5 5 5 4 3 4 5 5 5 5 5 6 6 6 6 6 6 5 5 5
10 11 12 12 12 11 11 12 13 13 13 12 12 11 11 10 10 9 9 6 6 4 4 5 6 6 6 4 3 5 5 5 6 6 6 6 5 5 5 5 5 5 5 4
10 11 12 12 12 12 12 12 12 12 12 11 11 10 9 8 7 7 7 5 6 6 6 6 7 9 9 4 5 6 6 6 6 6 6 5 5 5 5 5 4 4 4 4
11 11 12 12 13 13 13 12 11 10 11 11 9 9 8 8 7 8 8 8 8 8 7 6 8 8 5 3 5 5 5 5 5 5 6 5 5 5 4 4 4 4 4 4
10 11 12 13 12 10 12 12 12 12 11 9 9 8 7 7 8 8 8 8 7 6 7 5 4 4 3 4 6 6 6 6 6 5 5 4 4 5 4 4 4 3 3 4
9 9 9 9 9 8 9 9 9 8 9 8 8 7 7 7 9 7 6 8 8 6 5 4 3 2 4 6 6 6 5 4 4 5 5 4 5 5 4 4 3 3 3 3
10 8 7 8 8 7 7 7 8 8 8 8 8 8 8 7 7 7 7 7 6 5 5 4 3 4 5 5 5 4 4 4 4 4 4 4 4 3 3 3 3 3 3 3
Wind_Direction
249 251 229 219 223 226 229 236 236 201 173 160 148 131 125 127 126 121 116 114 111 106 104 118 126 133 136 140 134 129 125 129 135 144 145 133 122 119 125 136 144 133 129 129
241 246 237 228 217 222 227 231 222 206 172 139 126 115 127 124 120 114 117 114 105 99 101 106 115 129 133 128 124 119 121 123 125 125 118 113 112 110 105 102 97 98 101 99
235 231 240 236 221 215 218 222 222 207 146 137 131 141 136 132 129 118 117 107 99 90 82 88 89 98 104 117 121 120 115 113 116 113 108 109 116 109 107 105 98 89 89 95
241 229 233 232 225 217 210 199 178 151 148 148 135 120 103 99 99 97 96 97 90 91 90 81 78 92 106 112 116 117 113 112 113 117 112 107 99 89 87 88 87 86 82 86
236 234 231 226 217 214 200 181 151 145 140 133 133 120 98 91 92 91 86 85 84 82 82 73 70 80 93 107 108 110 115 116 115 114 110 108 103 96 90 90 87 80 74 74
233 239 232 216 278 274 185 167 128 129 141 143 148 136 111 98 94 89 82 78 72 75 74 69 61 66 76 87 91 93 97 95 96 95 98 100 100 99 94 89 86 81 72 67
233 239 231 336 316 270 208 134 105 114 126 133 132 108 115 102 90 83 78 73 68 69 70 63 63 68 70 70 72 76 83 87 86 89 94 94 94 95 97 96 92 87 83 75
225 233 208 5 22 43 88 92 103 109 109 107 106 108 107 99 92 87 81 75 72 72 71 65 62 68 72 70 73 79 83 85 82 80 87 93 94 93 97 102 102 99 94 85
154 110 86 69 78 83 86 97 95 104 110 111 112 110 108 103 96 88 82 77 77 80 78 70 64 64 75 75 79 85 86 85 82 78 71 72 78 82 85 89 91 90 90 87
101 113 108 98 94 88 90 97 96 101 109 112 114 114 110 102 95 90 83 80 79 78 77 73 69 67 72 81 83 87 89 88 85 81 71 59 54 52 53 45 65 78 78 81
115 112 104 105 96 101 104 101 102 101 103 108 111 109 105 99 93 90 84 78 76 76 75 75 73 69 68 78 91 93 93 91 87 82 81 72 63 50 55 47 43 69 75 74
132 139 130 111 99 105 106 104 103 103 100 101 104 106 104 98 93 92 88 83 81 79 78 76 76 75 71 73 92 98 100 100 98 97 96 96 93 77 55 59 59 63 69 80
115 119 110 114 113 99 101 101 101 103 106 105 103 105 103 100 97 94 90 86 84 83 81 79 78 76 73 76 88 94 100 100 103 108 110 110 109 106 97 70 60 61 66 74
108 117 117 113 109 105 104 104 101 102 102 104 107 107 105 103 99 94 90 89 89 86 82 79 77 73 70 76 83 87 90 90 93 99 105 110 115 118 117 114 103 84 68 70
98 110 122 123 118 113 113 114 113 108 104 103 105 106 105 102 98 93 89 88 87 85 81 80 77 70 68 75 78 80 81 86 86 93 98 100 105 108 108 108 110 114 113 98
105 110 123 125 123 123 123 120 117 115 112 108 106 105 103 102 100 96 93 91 90 87 84 83 83 81 81 84 84 86 90 92 91 95 98 97 95 98 100 103 104 104 102 96
129 136 139 133 128 126 123 122 121 120 116 112 112 110 108 106 100 97 94 92 90 88 86 86 86 88 87 84 89 98 99 99 94 89 87 89 90 91 93 96 97 95 86 61
136 139 134 128 127 122 120 118 116 115 115 116 114 111 110 108 105 103 101 100 95 86 76 73 73 82 81 70 65 88 106 113 107 98 94 90 91 94 95 93 92 96 103 90
126 123 124 121 121 120 119 117 115 114 115 117 114 110 108 106 105 104 102 98 93 86 73 63 58 71 77 62 48 87 90 93 92 91 95 101 97 86 82 82 83 82 78 73
120 121 119 117 117 117 119 120 120 119 118 116 113 108 105 103 104 103 96 87 81 84 83 66 62 66 65 51 28 79 91 95 100 102 98 92 86 83 82 82 82 79 78 78
121 121 120 118 116 116 119 121 119 116 112 113 113 112 111 106 103 102 101 94 80 76 87 82 67 57 48 18 13 74 85 88 93 92 89 86 84 83 81 78 80 81 80 80
119 122 122 122 121 118 118 117 117 117 116 118 118 117 115 111 104 93 85 92 91 61 73 80 69 44 14 356 70 80 84 85 85 86 83 82 83 83 82 83 82 82 79 77
119 120 122 124 122 118 116 117 119 120 121 121 119 117 113 108 110 109 102 89 89 75 72 65 40 26 12 35 69 76 77 79 84 91 92 90 89 87 85 83 81 80 80 80
121 120 122 123 123 121 119 118 116 116 116 115 116 118 118 114 105 99 102 93 81 86 84 62 33 21 8 62 76 77 78 80 84 88 93 91 88 87 84 82 81 81 82 77
121 123 126 129 127 123 123 123 121 121 119 115 113 109 102 99 103 103 104 106 114 109 106 85 34 9 29 77 78 76 69 61 62 69 76 80 87 86 79 72 66 67 73 74
119 121 122 122 121 126 130 130 128 128 126 121 116 111 108 108 112 117 120 122 119 118 116 117 112 102 86 83 82 84 90 94 84 79 77 76 77 76 72 68 70 69 71 71
109 109 111 115 121 125 127 126 126 126 125 125 123 121 121 122 122 122 123 124 127 125 117 114 101 92 91 94 94 90 86 80 77 78 81 77 79 83 84 74 60 61 65 76